Location: Maccacari
(45.1333°N, 11.1333°E)
Time: 23:58:14
(UTC+00:00)

A-11 Canister half - Pass Details

Date: 26 January 2021
Orbit: 1525 x 1684 km, 47.3° (Epoch: 07 March)

Event Time Altitude Azimuth Distance (km) Brightness Sun altitude
Rises 15:47:56 0° 268° (W) 4,687 12.8 3.3°
Reaches altitude 10° 15:50:58 10° 270° (W) 3,717 12.2 2.8°
Maximum altitude 16:00:24 79° 358° (N) 1,601 9.2 1.4°
Drops below altitude 10° 16:10:10 10° 85° (E) 3,834 10.5 -0.1°
Sets 16:13:21 0° 87° (E) 4,841 11.0 -0.6°
